Home > Time Zones > World Clock > Weather > U.S.A. > Knox > Past weeks

Flag for U.S.A. Weather past 2 weeks in Knox, Indiana, U.S.A.

Now
25 °F

Overcast.


Feels Like: 19 °F
Forecast: 21 / 38 °F
Wind: 5 mph from Southeast

Location: Porter County Municipal Airport

Current Time: Mar 2, 2015 at 11:36:52 PM

Latest Report: Mar 2, 2015 at 10:56 PM


Visibility: 10 mi

Pressure: 30.32 "Hg

Humidity: 66%

Dew point: 15 °F

Location of KnoxLocation

Historic Weather in Knox — Graph

°F

Knox temperature yesterday

Maximum temperature yesterday: 24 °F (at 2:56 PM)
Minimum temperature yesterday: 16 °F (at 4:56 AM)
Average temperature yesterday: 19 °F

Past Weeks' High & Low Weather Summary

 TemperatureHumidityPressure
High28 °F (Feb 21, 3:56 PM)92% (Feb 27, 3:56 AM)30.79 "Hg (Feb 27, 3:56 AM)
Low-12 °F (Feb 20, 5:56 AM)40% (Feb 23, 2:56 PM)29.76 "Hg (Feb 24, 1:56 PM)
Average12 °F69%30.27 "Hg
* Reported Feb 15 9:56 PM — Mar 2 9:56 PM, Knox, Weather by CustomWeather, © 2015

Note: Actual official high and low records may vary slightly from our data, if they occured in-between our weather recording intervals... More about our weather records

Advertising

Knox weather history for previous 24 hours

 ConditionsComfort  
Time TempWeatherWind HumidityBarometerVisibility
9:56 PM
Mon, Mar 2
24 °FOvercast.5 mph68%30.35 "Hg10 mi
8:56 PM24 °FMostly cloudy.3 mph71%30.38 "Hg10 mi
7:56 PM24 °FOvercast.7 mph68%30.40 "Hg10 mi
6:56 PM25 °FPassing clouds.7 mph60%30.42 "Hg10 mi
5:56 PM26 °FPassing clouds.5 mph55%30.44 "Hg10 mi
4:56 PM26 °FClear.5 mph55%30.46 "Hg10 mi
3:56 PM27 °FSunny.5 mph53%30.46 "Hg10 mi
2:56 PM26 °FSunny.7 mph55%30.49 "Hg10 mi
1:56 PM26 °FSunny.7 mph57%30.50 "Hg10 mi
12:56 PM26 °FSunny.8 mph63%30.53 "Hg10 mi
11:56 AM25 °FSunny.5 mph66%30.55 "Hg10 mi
10:56 AM27 °FSunny.No wind61%30.55 "Hg10 mi
9:56 AM25 °FSunny.6 mph60%30.55 "Hg10 mi
8:56 AM20 °FSunny.6 mph68%30.54 "Hg8 mi
7:56 AM15 °FSunny.8 mph74%30.52 "Hg8 mi
6:56 AM9 °FSunny.7 mph84%30.51 "Hg7 mi
5:56 AM8 °FSunny.7 mph83%30.49 "Hg8 mi
4:56 AM9 °FClear.10 mph80%30.47 "Hg9 mi
3:56 AM11 °FClear.9 mph81%30.46 "Hg9 mi
2:56 AM13 °FClear.8 mph77%30.45 "Hg10 mi
1:56 AM13 °FClear.10 mph81%30.44 "Hg8 mi
12:56 AM15 °FClear.10 mph80%30.41 "Hg8 mi
11:56 PM
Sun, Mar 1
16 °FClear.13 mph80%30.39 "Hg9 mi
Weather by CustomWeather, © 2015

See weather overviewHow to use our weather pages